TimeMDT,TemperatureF,Dew PointF,Humidity,Sea Level PressureIn,VisibilityMPH,Wind Direction,Wind SpeedMPH,Gust SpeedMPH,PrecipitationIn,Events,Conditions,WindDirDegrees,DateUTC
12:53 AM,50.0,37.9,63,30.22,10.0,SSW,5.8,-,N/A,,Clear,210,2012-09-08 06:53:00
1:53 AM,48.9,37.9,66,30.24,10.0,SSW,4.6,-,N/A,,Clear,210,2012-09-08 07:53:00
2:53 AM,48.0,37.9,68,30.23,10.0,SW,4.6,-,N/A,,Clear,220,2012-09-08 08:53:00
3:53 AM,48.0,37.9,68,30.24,10.0,SW,3.5,-,N/A,,Clear,220,2012-09-08 09:53:00
4:53 AM,46.0,37.0,71,30.25,10.0,Calm,Calm,-,N/A,,Clear,0,2012-09-08 10:53:00
5:53 AM,44.1,37.0,76,30.27,10.0,SSW,6.9,-,N/A,,Clear,200,2012-09-08 11:53:00
6:53 AM,46.0,37.9,73,30.29,10.0,SSW,5.8,-,N/A,,Clear,200,2012-09-08 12:53:00
8:53 AM,62.1,42.1,48,30.27,10.0,NW,3.5,-,N/A,,Clear,320,2012-09-08 14:53:00
9:53 AM,69.1,43.0,39,30.26,10.0,West,4.6,-,N/A,,Clear,280,2012-09-08 15:53:00
10:53 AM,73.0,42.1,33,30.24,10.0,West,4.6,-,N/A,,Clear,280,2012-09-08 16:53:00
11:53 AM,77.0,39.9,26,30.21,10.0,NW,5.8,-,N/A,,Clear,320,2012-09-08 17:53:00
12:53 PM,78.1,39.9,25,30.19,10.0,NW,10.4,-,N/A,,Clear,320,2012-09-08 18:53:00
1:53 PM,80.1,41.0,25,30.16,10.0,NW,10.4,18.4,N/A,,Clear,320,2012-09-08 19:53:00
2:53 PM,81.0,39.9,23,30.12,10.0,West,5.8,-,N/A,,Clear,260,2012-09-08 20:53:00
3:53 PM,82.0,39.0,22,30.10,10.0,Variable,5.8,-,N/A,,Clear,0,2012-09-08 21:53:00
4:53 PM,81.0,37.9,21,30.09,10.0,WNW,5.8,-,N/A,,Clear,300,2012-09-08 22:53:00
5:53 PM,81.0,37.9,21,30.09,10.0,Calm,Calm,-,N/A,,Clear,0,2012-09-08 23:53:00
6:53 PM,77.0,37.0,24,30.09,10.0,SW,3.5,-,N/A,,Clear,220,2012-09-09 00:53:00
7:53 PM,66.0,35.1,32,30.11,10.0,SSW,5.8,-,N/A,,Clear,210,2012-09-09 01:53:00
8:53 PM,62.1,35.1,37,30.12,10.0,SSW,8.1,-,N/A,,Clear,210,2012-09-09 02:53:00
9:53 PM,59.0,34.0,39,30.11,10.0,SSW,8.1,-,N/A,,Clear,200,2012-09-09 03:53:00
10:53 PM,62.1,34.0,35,30.11,10.0,Calm,Calm,-,N/A,,Clear,0,2012-09-09 04:53:00
11:53 PM,54.0,33.1,45,30.12,10.0,Calm,Calm,-,N/A,,Clear,0,2012-09-09 05:53:00